This is the latest recevied weather packets stored in our database for station/object EA1FBN. If no packets are shown the sender has not sent any weather packets the latest 10 day(s).
| Time | Temp. | Humidity | Pressure | Rain* | Wind** | Luminosity | Snow |
|---|---|---|---|---|---|---|---|
| 1777732223 | 13.89° C | 72% | 1014.6 hPa | 0 mm | - | - | - |
| 1777731923 | 13.89° C | 73% | 1014.8 hPa | 0 mm | - | - | - |
| 1777731623 | 14.44° C | 71% | 1015 hPa | 0 mm | - | - | - |
| 1777731323 | 15.56° C | 71% | 1015.3 hPa | 0 mm | - | - | - |
| 1777731023 | 16.11° C | 68% | 1014.9 hPa | 0 mm | - | - | - |
| 1777730723 | 16.67° C | 67% | 1014.9 hPa | 0 mm | - | - | - |
| 1777730424 | 16.67° C | 67% | 1014.9 hPa | 0 mm | - | - | - |
| 1777730124 | 16.67° C | 68% | 1015.1 hPa | 0 mm | - | - | - |
| 1777729824 | 16.67° C | 68% | 1015.1 hPa | 0 mm | - | - | - |
| 1777729524 | 16.67° C | 66% | 1015.1 hPa | 0 mm | - | - | - |
| 1777729224 | 16.11° C | 70% | 1015.1 hPa | 0 mm | - | - | - |
| 1777728924 | 16.11° C | 70% | 1015.2 hPa | 0 mm | - | - | - |
| 1777728624 | 15.56° C | 69% | 1015.3 hPa | 0 mm | - | - | - |
| 1777728324 | 15.56° C | 69% | 1015.2 hPa | 0 mm | - | - | - |
| 1777728024 | 15.56° C | 68% | 1015.2 hPa | 0.51 mm | - | - | - |
| 1777727724 | 15° C | 70% | 1015.3 hPa | 0.51 mm | - | - | - |
| 1777727424 | 15° C | 71% | 1015.2 hPa | 0.51 mm | - | - | - |
| 1777727124 | 14.44° C | 71% | 1015.2 hPa | 0.76 mm | - | - | - |
| 1777726824 | 14.44° C | 72% | 1015.1 hPa | 0.76 mm | - | - | - |
| 1777726524 | 14.44° C | 72% | 1015.1 hPa | 0.76 mm | - | - | - |
| 1777726224 | 14.44° C | 72% | 1015.1 hPa | 0.76 mm | - | - | - |
| 1777725924 | 15° C | 70% | 1015.2 hPa | 0.76 mm | - | - | - |
| 1777725624 | 15.56° C | 71% | 1015.5 hPa | 0.76 mm | - | - | - |
| 1777725324 | 15.56° C | 67% | 1015.7 hPa | 0.76 mm | - | - | - |
| 1777725024 | 16.11° C | 69% | 1015.5 hPa | 0.76 mm | - | - | - |
* Rain latest hour (hover to see other rain measurements)
** Current wind speed in m/s (hover to see current wind gust speed)